• In Belarus
  • List of Countries
  • For 7 days
  • Water Temperature
  • Weather Map
  • Weather Widgets
  • user-avatar
    Login

    Hourly Weather Bolshaya Lubyanka

    Today, 27 February, Thursday

    Time Temperature Precipitation Wind Pressure Humidity
    00:00 0°C° 0.1 mm 3 mps 734 mmHg 98%
    01:00 +1°C° 0 mm 2 mps 734 mmHg 98%
    02:00 +1°C° 0 mm 2 mps 734 mmHg 98%
    03:00 +2°C° 0 mm 1 mps 734 mmHg 98%
    04:00 +2°C° 0 mm 1 mps 734 mmHg 98%
    05:00 +1°C° 0 mm 2 mps 734 mmHg 98%
    06:00 +1°C° 0 mm 2 mps 734 mmHg 98%
    07:00 +1°C° 0.3 mm 2 mps 734 mmHg 98%
    08:00 0°C° 0.3 mm 3 mps 734 mmHg 98%
    09:00 0°C° 0 mm 3 mps 734 mmHg 98%
    10:00 0°C° 0.2 mm 3 mps 734 mmHg 98%
    11:00 -1°C° 0.2 mm 4 mps 733 mmHg 99%
    12:00 -1°C° 0.2 mm 4 mps 733 mmHg 99%
    13:00 -1°C° 0.1 mm 5 mps 733 mmHg 99%
    14:00 -1°C° 0.1 mm 5 mps 733 mmHg 99%
    15:00 0°C° 0.1 mm 5 mps 732 mmHg 99%
    16:00 0°C° 0.1 mm 5 mps 732 mmHg 99%
    17:00 0°C° 0.1 mm 5 mps 732 mmHg 98%
    18:00 0°C° 0.1 mm 5 mps 732 mmHg 97%
    19:00 -1°C° 1.3 mm 4 mps 732 mmHg 98%
    20:00 0°C° 1.3 mm 3 mps 732 mmHg 98%
    21:00 0°C° 1.3 mm 3 mps 732 mmHg 98%
    22:00 0°C° 0.3 mm 3 mps 732 mmHg 98%
    23:00 0°C° 0.3 mm 3 mps 732 mmHg 98%

    Tomorrow, 28 February, Friday

    Time Temperature Precipitation Wind Pressure Humidity
    00:00 0°C° 0.3 mm 3 mps 732 mmHg 98%
    01:00 0°C° 0 mm 3 mps 732 mmHg 96%
    02:00 0°C° 0 mm 3 mps 733 mmHg 94%
    03:00 0°C° 0 mm 3 mps 733 mmHg 93%
    04:00 -1°C° 0 mm 2 mps 733 mmHg 92%
    05:00 -1°C° 0 mm 2 mps 733 mmHg 91%
    06:00 0°C° 0 mm 1 mps 733 mmHg 90%
    07:00 0°C° 0 mm 1 mps 733 mmHg 90%
    08:00 +1°C° 0 mm 1 mps 733 mmHg 89%
    09:00 +1°C° 0 mm 1 mps 733 mmHg 88%
    10:00 -1°C° 0 mm 2 mps 733 mmHg 88%
    11:00 +1°C° 0 mm 2 mps 733 mmHg 88%
    12:00 +1°C° 0 mm 2 mps 732 mmHg 88%
    13:00 0°C° 0.2 mm 3 mps 732 mmHg 89%
    14:00 0°C° 0.2 mm 3 mps 732 mmHg 90%
    15:00 -2°C° 0.2 mm 4 mps 732 mmHg 91%
    16:00 -2°C° 0.2 mm 4 mps 733 mmHg 92%
    17:00 -1°C° 0.2 mm 3 mps 733 mmHg 92%
    18:00 -1°C° 0.2 mm 3 mps 734 mmHg 93%
    19:00 -1°C° 0 mm 3 mps 735 mmHg 91%
    20:00 -2°C° 0 mm 4 mps 735 mmHg 89%
    21:00 -3°C° 0 mm 4 mps 736 mmHg 87%
    22:00 -3°C° 0 mm 4 mps 736 mmHg 87%
    23:00 -3°C° 0 mm 4 mps 737 mmHg 87%

    Day after tomorrow, 29 February, Saturday

    Time Temperature Precipitation Wind Pressure Humidity
    00:00 -4°C° 0 mm 4 mps 737 mmHg 87%
    01:00 -4°C° 0 mm 4 mps 738 mmHg 87%
    02:00 -5°C° 0 mm 5 mps 738 mmHg 87%
    03:00 -5°C° 0 mm 5 mps 738 mmHg 87%
    04:00 -5°C° 0 mm 5 mps 739 mmHg 87%
    05:00 -5°C° 0 mm 5 mps 739 mmHg 88%
    06:00 -5°C° 0 mm 5 mps 739 mmHg 88%
    07:00 -5°C° 0 mm 5 mps 739 mmHg 85%
    08:00 -4°C° 0 mm 5 mps 740 mmHg 83%
    09:00 -4°C° 0 mm 5 mps 740 mmHg 80%
    10:00 -3°C° 0 mm 6 mps 740 mmHg 79%
    11:00 -3°C° 0 mm 6 mps 740 mmHg 78%
    12:00 -3°C° 0 mm 6 mps 741 mmHg 77%
    13:00 -3°C° 0.1 mm 6 mps 741 mmHg 77%
    14:00 -1°C° 0.1 mm 5 mps 741 mmHg 78%
    15:00 -1°C° 0.1 mm 5 mps 742 mmHg 78%
    16:00 -2°C° 0 mm 5 mps 742 mmHg 78%
    17:00 -3°C° 0 mm 4 mps 742 mmHg 78%
    18:00 -3°C° 0 mm 4 mps 742 mmHg 78%
    19:00 -4°C° 0 mm 3 mps 743 mmHg 79%
    20:00 -4°C° 0 mm 3 mps 743 mmHg 80%
    21:00 -3°C° 0 mm 2 mps 744 mmHg 81%
    22:00 -3°C° 0 mm 2 mps 744 mmHg 81%
    23:00 -4°C° 0 mm 3 mps 745 mmHg 81%

    1 March, Sunday

    Time Temperature Precipitation Wind Pressure Humidity
    00:00 -4°C° 0 mm 3 mps 745 mmHg 82%
    01:00 -4°C° 0 mm 3 mps 746 mmHg 84%
    02:00 -5°C° 0 mm 3 mps 746 mmHg 85%
    03:00 -5°C° 0 mm 3 mps 746 mmHg 87%
    04:00 -5°C° 0 mm 3 mps 747 mmHg 89%
    05:00 -5°C° 0 mm 3 mps 747 mmHg 90%
    06:00 -5°C° 0 mm 2 mps 748 mmHg 91%
    07:00 -4°C° 0 mm 2 mps 748 mmHg 90%
    08:00 -4°C° 0 mm 2 mps 749 mmHg 89%
    09:00 -4°C° 0 mm 2 mps 749 mmHg 88%
    10:00 -3°C° 0 mm 2 mps 749 mmHg 84%
    11:00 -2°C° 0 mm 2 mps 749 mmHg 80%
    12:00 -1°C° 0 mm 3 mps 749 mmHg 76%
    13:00 -1°C° 0 mm 3 mps 749 mmHg 77%
    14:00 0°C° 0 mm 3 mps 749 mmHg 77%
    15:00 -1°C° 0 mm 4 mps 749 mmHg 78%
    16:00 -2°C° 0 mm 4 mps 749 mmHg 82%
    17:00 -2°C° 0 mm 4 mps 749 mmHg 86%
    18:00 -3°C° 0 mm 4 mps 749 mmHg 89%
    19:00 -4°C° 0 mm 5 mps 749 mmHg 89%
    20:00 -4°C° 0 mm 5 mps 749 mmHg 89%
    21:00 -4°C° 0 mm 5 mps 749 mmHg 88%
    22:00 -4°C° 0 mm 6 mps 749 mmHg 87%
    23:00 -4°C° 0 mm 6 mps 749 mmHg 85%

    2 March, Monday

    Time Temperature Precipitation Wind Pressure Humidity
    00:00 -3°C° 0 mm 6 mps 749 mmHg 83%
    01:00 -3°C° 0 mm 6 mps 748 mmHg 81%
    02:00 -3°C° 0 mm 6 mps 748 mmHg 79%
    03:00 -3°C° 0 mm 7 mps 748 mmHg 77%
    04:00 -3°C° 0 mm 7 mps 748 mmHg 77%
    05:00 -3°C° 0 mm 7 mps 747 mmHg 76%
    06:00 -3°C° 0 mm 7 mps 747 mmHg 76%
    07:00 -3°C° 0 mm 7 mps 747 mmHg 78%
    08:00 -2°C° 0 mm 7 mps 747 mmHg 80%
    09:00 -2°C° 0 mm 8 mps 747 mmHg 82%
    10:00 -2°C° 0 mm 8 mps 747 mmHg 82%
    11:00 -1°C° 0 mm 8 mps 747 mmHg 82%
    12:00 -1°C° 0 mm 8 mps 747 mmHg 82%
    13:00 -1°C° 0 mm 8 mps 747 mmHg 81%
    14:00 -1°C° 0 mm 7 mps 747 mmHg 80%
    15:00 0°C° 0 mm 7 mps 747 mmHg 80%
    16:00 -1°C° 0 mm 6 mps 747 mmHg 80%
    17:00 0°C° 0 mm 5 mps 747 mmHg 80%
    18:00 -1°C° 0 mm 4 mps 747 mmHg 80%
    19:00 -1°C° 0 mm 4 mps 747 mmHg 80%
    20:00 -1°C° 0 mm 4 mps 747 mmHg 79%
    21:00 -1°C° 0 mm 5 mps 747 mmHg 79%
    22:00 -1°C° 0 mm 5 mps 747 mmHg 80%
    23:00 -1°C° 0 mm 5 mps 747 mmHg 81%

    3 March, Tuesday

    Time Temperature Precipitation Wind Pressure Humidity
    00:00 -2°C° 0 mm 5 mps 747 mmHg 81%
    01:00 -2°C° 0 mm 5 mps 747 mmHg 82%
    02:00 -2°C° 0 mm 5 mps 747 mmHg 82%
    03:00 -2°C° 0 mm 5 mps 747 mmHg 82%
    04:00 -2°C° 0 mm 5 mps 746 mmHg 81%
    05:00 -2°C° 0 mm 5 mps 746 mmHg 81%
    06:00 -2°C° 0 mm 6 mps 746 mmHg 81%
    07:00 -2°C° 0 mm 6 mps 746 mmHg 81%
    08:00 -2°C° 0 mm 6 mps 746 mmHg 80%
    09:00 -2°C° 0 mm 7 mps 746 mmHg 80%
    10:00 -1°C° 0 mm 7 mps 745 mmHg 79%
    11:00 -1°C° 0 mm 7 mps 745 mmHg 77%
    12:00 -1°C° 0 mm 7 mps 745 mmHg 76%
    13:00 0°C° 0 mm 7 mps 745 mmHg 77%
    14:00 0°C° 0 mm 7 mps 744 mmHg 79%
    15:00 0°C° 0 mm 7 mps 744 mmHg 80%
    16:00 -1°C° 0.1 mm 7 mps 744 mmHg 85%
    17:00 -1°C° 0.1 mm 6 mps 744 mmHg 91%
    18:00 -2°C° 0.1 mm 6 mps 744 mmHg 97%
    19:00 0°C° 0.1 mm 5 mps 744 mmHg 96%
    20:00 0°C° 0.1 mm 5 mps 744 mmHg 96%
    21:00 0°C° 0.1 mm 4 mps 744 mmHg 96%
    22:00 0°C° 0 mm 4 mps 744 mmHg 96%
    23:00 0°C° 0 mm 4 mps 744 mmHg 96%
    Show more